Weather observations for the past three days for
New Castle Municipal Airport
Imperial (Metric)
Date Time (edt) Wind (mph) Vis. (mi.) Weather Sky Cond. Temperature (ºF) Relative Humidity Wind Chill (°F) Heat Index (°F) Pressure Precipitation (in)
Air Dwpt 6 hour altimeter (in) sea level (mb) 1 hr 3 hr 6 hr
Max. Min.
23 09:56 Vrbl 5 10.00 Fair CLR 73 68 84% 30.11 1020.3
23 08:56 Calm 10.00 Fair CLR 69.1 66.9 93% 30.1 1020.4
23 07:56 Calm 5.00 Fog/Mist CLR 64 64 66 60.1 100% 30.09 1019.9
23 06:56 Calm 3.00 Fog/Mist CLR 62.1 62.1 100% 30.08 1019.6
23 05:56 Calm 4.00 Fog/Mist CLR 61 61 100% 30.07 1019.2
23 04:56 S 3 6.00 Fog/Mist CLR 62.1 62.1 100% 30.06 1018.9
23 03:56 Calm 5.00 Fog/Mist FEW045 63 63 100% 30.05 1018.6
23 02:56 Calm 9.00 Overcast BKN049 OVC065 64.9 64.9 100% 30.05 1018.5
23 01:56 Calm 6.00 Fog/Mist BKN050 OVC090 64 64 71.1 63 100% 30.05 1018.3
23 00:56 Calm 9.00 Mostly Cloudy BKN070 64 64 100% 30.04 1018.1
22 23:56 Calm 10.00 Overcast SCT055 OVC110 66 66 100% 30.03 1017.9
22 22:56 S 3 10.00 Overcast OVC110 66 66 100% 30.03 1017.8
22 21:56 Calm 10.00 Overcast BKN050 OVC100 66.9 66.9 100% 30.03 1017.9
22 20:56 Calm 10.00 A Few Clouds FEW050 66.9 66.9 100% 30.02 1017.5
22 19:56 Calm 10.00 Fair CLR 71.1 69.1 73.9 70 94% 30.01 1017.0
22 18:56 Calm 10.00 Partly Cloudy SCT070 71.1 66.9 87% 30 1017.0
22 17:56 Calm 10.00 Partly Cloudy FEW075 SCT095 SCT110 72 66 82% 30.01 1017.2
22 16:56 Calm 10.00 Light Rain FEW038 SCT055 OVC095 70 68 93% 30.01 1017.2
22 15:56 Calm 10.00 Light Rain OVC110 71.1 68 90% 30.02 1017.5
22 14:56 S 3 10.00 Light Rain OVC100 71.1 66.9 87% 30.03 1017.9
22 13:56 Vrbl 5 10.00 Overcast SCT085 OVC110 73.9 64.9 75 64 74% 30.05 1018.3
22 12:56 Calm 10.00 Overcast OVC090 75 64.9 71% 77 30.05 1018.4
22 11:56 Calm 10.00 Mostly Cloudy BKN100 75 63 66% 77 30.04 1018.2
22 10:56 N 3 10.00 Mostly Cloudy BKN110 73.9 63 69% 30.04 1018.1
22 09:56 Calm 10.00 Fair CLR 72 62.1 71% 30.05 1018.5
22 08:56 Calm 10.00 Fair CLR 66.9 64.9 93% 30.05 1018.5
22 07:56 Calm 10.00 Fair CLR 64 63 64 60.1 96% 30.04 1018.0
22 06:56 Calm 10.00 Fair CLR 62.1 62.1 100% 30.04 1018.3
22 05:56 Calm 6.00 Fog/Mist CLR 60.1 60.1 100% 30.05 1018.4
22 04:56 Calm 10.00 Fair CLR 62.1 62.1 100% 30.05 1018.5
22 03:56 Calm 10.00 Fair CLR 63 63 100% 30.06 1018.9
22 02:56 Calm 10.00 Fair CLR 63 63 100% 30.09 1019.6
22 01:56 Calm 10.00 Fair CLR 63 63 73.9 62.1 100% 30.1 1020.1
22 00:56 Calm 10.00 Fair CLR 64 63 96% 30.11 1020.4
21 23:56 Calm 10.00 Fair CLR 64 63 96% 30.11 1020.4
21 22:56 Calm 10.00 Fair CLR 62.1 61 96% 30.11 1020.5
21 21:56 Calm 10.00 Fair CLR 64 61 90% 30.1 1020.1
21 20:56 Calm 10.00 Fair CLR 66.9 63 87% 30.09 1019.9
21 19:56 Calm 10.00 Fair CLR 73.9 63 82 73.9 69% 30.08 1019.5
21 18:56 Vrbl 3 10.00 Fair CLR 79 55 44% 80 30.08 1019.6
21 17:56 E 5 10.00 Fair CLR 80.1 55 42% 80 30.09 1019.9
21 16:56 NE 3 10.00 Fair CLR 79 55.9 45% 80 30.1 1020.3
21 15:56 W 6 10.00 Fair CLR 79 57.9 49% 80 30.11 1020.6
21 14:56 SW 3 10.00 Fair CLR 80.1 57 45% 80 30.12 1020.8
21 13:56 Calm 10.00 Fair CLR 78.1 57 80.1 60.1 48% 79 30.12 1020.9
21 12:56 Calm 10.00 Fair CLR 78.1 54 43% 79 30.13 1021.2
21 11:56 Calm 10.00 Fair CLR 77 57.9 52% 79 30.14 1021.4
21 10:56 Calm 10.00 Fair CLR 75 59 58% 77 30.14 1021.6
21 09:56 Calm 10.00 Fair CLR 70 62.1 76% 30.14 1021.4
21 08:56 Calm 10.00 Fair CLR 64.9 57.9 78% 30.14 1021.6
21 07:56 Calm 10.00 Fair CLR 60.1 57.9 60.1 54 93% 30.14 1021.5
21 06:56 Calm 9.00 Fair CLR 55.9 55.9 100% 30.13 1021.4
21 05:56 Calm 7.00 Fair CLR 54 54 100% 30.13 1021.3
21 04:56 Calm 10.00 Fair CLR 55.9 55.9 100% 30.12 1020.7
21 03:56 Calm 9.00 Fair CLR 55 55 100% 30.11 1020.4
21 02:56 Calm 10.00 Fair CLR 55.9 55.9 100% 30.11 1020.6
21 01:56 Calm 10.00 Fair CLR 57 55.9 78.1 57 96% 30.11 1020.4
21 00:56 Calm 10.00 Fair CLR 59 57 93% 30.11 1020.5
20 23:56 Calm 10.00 Fair CLR 62.1 55.9 80% 30.11 1020.4
20 22:56 N 3 10.00 Fair CLR 66 55 68% 30.11 1020.3
20 21:56 Calm 10.00 Fair CLR 70 55 59% 30.1 1020.2
20 20:56 N 7 10.00 Fair CLR 73 55.9 55% 30.09 1019.7
20 19:56 N 6 10.00 Fair CLR 78.1 55.9 82.9 78.1 47% 79 30.08 1019.3
20 18:56 N 8 10.00 Fair CLR 80.1 55 42% 80 30.07 1019.1
20 17:56 N 7 10.00 Fair CLR 81 55.9 42% 81 30.07 1019.0
20 16:56 Calm 10.00 Mostly Cloudy BKN060 82 57 43% 82 30.08 1019.5
20 15:56 SW 6 10.00 Mostly Cloudy BKN060 82 57.9 44% 82 30.08 1019.5
20 14:56 NW 8 10.00 Mostly Cloudy BKN055 81 59 47% 81 30.09 1019.9
20 13:56 Vrbl 3 10.00 A Few Clouds FEW055 80.1 57.9 81 61 47% 81 30.1 1020.2
20 12:56 NW 7 10.00 Fair CLR 79 57 47% 80 30.11 1020.6
20 11:56 NW 5 10.00 Fair CLR 78.1 57 48% 79 30.12 1020.9
20 10:56 NE 3 10.00 Fair CLR 75.9 57 52% 78 30.12 1020.7
Date Time (edt) Wind (mph) Vis. (mi.) Weather Sky Cond. Air Dwpt Max. Min. Relative Humidity Wind Chill (°F) Heat Index (°F) altimeter (in) sea level (mb) 1 hr 3 hr 6 hr
6 hour
Temperature (ºF) Pressure Precipitation (in)